Content
SEND FEEDBACK

Daily
Averages
Monthly
Summary
United States of America

SAN JUAN, NEW MEXICO


Home > North America > United States > New Mexico
Elevation: 5640 feet     Latitude: 32 44N     Longitude: 107 39W

WEATHER
 
SELECT A DAY
Number of Records: 372,022;   Date Range: 2/13/95 - 10/29/14
 
SHARE

PRINT THIS DATA

[ ← Previous Day ]
WEATHER ALMANAC - JANUARY 23, 2013
[ Next Day → ]
[ °C ]   °F
Weather ElementAverageHighLow
Temperature45.7 °F64.4 °F (1:55 pm)26.6 °F (6:55 am)
Dewpoint13.4 °F17.6 °F (10:55 am)8.6 °F (6:55 am)
Humidity30.2 %51 % (7:15 am)14 % (1:55 pm)
Barometer30.35 in30.41 in (9:35 am)30.31 in (3:15 pm)
Wind Speed7.7 mph13.8 mph (2:15 am)
Weather ElementAverage
Visibility10 mi
Wind DirectionWSW (231.8 °)

Weather ElementTotal
Precipitation---
Heating Degree Days19.5 (Base 65)
Averaged from 71 records on January 23, 2013
WEATHER CONDITIONS BREAKOUT
WIND DIRECTION BREAKOUT
WEATHER BY HOUR - JANUARY 23, 2013
[ °C ]   °F
Local TimeTemperatureDewpointHumidityBarometerVisibilityWind DirectionWind SpeedGust SpeedPrecipitationEventsConditions
12:35 AM35.6 °F14.0 °F41 %30.32 in10.0 miNorth (360°)10.4 mphClear
12:55 AM35.6 °F14.0 °F41 %30.32 in10.0 miNorth (360°)10.4 mphClear
1:15 AM33.8 °F14.0 °F44 %30.33 in10.0 miNorth (350°)10.4 mphClear
1:35 AM32.0 °F14.0 °F48 %30.34 in10.0 miNNW (330°)9.2 mphClear
1:55 AM32.0 °F14.0 °F48 %30.34 in10.0 miNNW (340°)10.4 mphClear
2:15 AM32.0 °F14.0 °F48 %30.33 in10.0 miNorth (350°)13.8 mphClear
2:35 AM35.6 °F14.0 °F41 %30.33 in10.0 miNorth (360°)10.4 mphClear
2:55 AM35.6 °F14.0 °F41 %30.33 in10.0 miNorth (360°)12.7 mphClear
3:15 AM35.6 °F14.0 °F41 %30.33 in10.0 miNorth (360°)10.4 mphClear
3:35 AM33.8 °F14.0 °F44 %30.33 in10.0 miNorth (10°)8.1 mphClear
3:55 AM32.0 °F14.0 °F48 %30.33 in10.0 miNorth (360°)9.2 mphClear
4:15 AM30.2 °F12.2 °F47 %30.33 in10.0 miNorth (350°)9.2 mphClear
4:35 AM30.2 °F10.4 °F44 %30.33 in10.0 miNorth (350°)10.4 mphClear
4:55 AM32.0 °F10.4 °F41 %30.34 in10.0 miNNW (340°)6.9 mphClear
5:15 AM28.4 °F10.4 °F47 %30.34 in10.0 miNNW (330°)9.2 mphClear
5:35 AM32.0 °F10.4 °F41 %30.33 in10.0 miNorth (360°)11.5 mphClear
5:55 AM32.0 °F10.4 °F41 %30.34 in10.0 miNorth (350°)11.5 mphClear
6:15 AM30.2 °F10.4 °F44 %30.35 in10.0 miNorth (350°)10.4 mphClear
6:35 AM28.4 °F10.4 °F47 %30.35 in10.0 miNorth (350°)9.2 mphClear
6:55 AM26.6 °F8.6 °F47 %30.36 in10.0 miNorth (350°)10.4 mphClear
7:15 AM26.6 °F10.4 °F51 %30.36 in10.0 miNorth (10°)9.2 mphClear
7:35 AM28.4 °F10.4 °F47 %30.36 in10.0 miNorth (360°)11.5 mphClear
7:55 AM33.8 °F10.4 °F38 %30.37 in10.0 miNorth (350°)8.1 mphClear
8:15 AM39.2 °F12.2 °F33 %30.38 in10.0 miNorth (360°)8.1 mphClear
8:35 AM44.6 °F14.0 °F29 %30.38 in10.0 miNorth (10°)5.8 mphClear
8:55 AM48.2 °F14.0 °F25 %30.39 in10.0 miNorth (360°)5.8 mphClear
9:15 AM53.6 °F14.0 °F21 %30.40 in10.0 miNE (50°)3.5 mphClear
9:35 AM53.6 °F14.0 °F21 %30.41 in10.0 miCalmClear
9:55 AM55.4 °F14.0 °F20 %30.41 in10.0 miCalmClear
10:15 AM55.4 °F14.0 °F20 %30.41 in10.0 miCalmClear
10:35 AM59.0 °F15.8 °F19 %30.41 in10.0 miSouth (180°)3.5 mphClear
10:55 AM59.0 °F17.6 °F20 %30.41 in10.0 miSSE (150°)5.8 mphClear
11:15 AM59.0 °F15.8 °F19 %30.41 in10.0 miSSE (150°)3.5 mphClear
11:35 AM59.0 °F15.8 °F19 %30.40 in10.0 miSSE (150°)5.8 mphClear
11:55 AM60.8 °F15.8 °F17 %30.39 in10.0 miSouth (170°)6.9 mphClear
12:15 PM62.6 °F14.0 °F15 %30.38 in10.0 miSouth (180°)3.5 mphClear
12:35 PM62.6 °F14.0 °F15 %30.37 in10.0 miSSW (210°)5.8 mphClear
12:55 PM62.6 °F15.8 °F16 %30.36 in10.0 miSW (220°)3.5 mphClear
1:15 PM62.6 °F14.0 °F15 %30.35 in10.0 miSouth (180°)6.9 mphClear
1:35 PM62.6 °F14.0 °F15 %30.34 in10.0 miSSW (200°)9.2 mphClear
1:55 PM64.4 °F14.0 °F14 %30.33 in10.0 miSW (230°)5.8 mphClear
2:15 PM64.4 °F15.8 °F15 %30.33 in10.0 miSW (220°)6.9 mphClear
2:35 PM64.4 °F14.0 °F14 %30.32 in10.0 miSE (140°)4.6 mphClear
2:55 PM64.4 °F15.8 °F15 %30.32 in10.0 miSSE (150°)6.9 mphClear
3:15 PM64.4 °F14.0 °F14 %30.31 in10.0 miESE (120°)4.6 mphClear
3:35 PM64.4 °F14.0 °F14 %30.31 in10.0 miSouth (180°)6.9 mphClear
3:55 PM64.4 °F14.0 °F14 %30.31 in10.0 miSouth (190°)6.9 mphClear
4:15 PM62.6 °F14.0 °F15 %30.31 in10.0 miSouth (180°)6.9 mphClear
4:35 PM62.6 °F15.8 °F16 %30.31 in10.0 miSouth (190°)10.4 mphClear
4:55 PM62.6 °F15.8 °F16 %30.31 in10.0 miSSW (200°)6.9 mphClear
5:15 PM59.0 °F15.8 °F19 %30.32 in10.0 miSouth (190°)5.8 mphClear
5:35 PM57.2 °F14.0 °F18 %30.32 in10.0 miSouth (180°)4.6 mphClear
5:55 PM55.4 °F14.0 °F20 %30.32 in10.0 miSouth (180°)4.6 mphClear
6:15 PM55.4 °F15.8 °F21 %30.33 in10.0 miSSW (200°)3.5 mphClear
6:35 PM53.6 °F15.8 °F22 %30.33 in10.0 miCalmClear
6:55 PM50.0 °F14.0 °F24 %30.32 in10.0 miCalmClear
7:15 PM42.8 °F10.4 °F27 %30.32 in10.0 miNNE (30°)5.8 mphClear
7:35 PM39.2 °F10.4 °F31 %30.33 in10.0 miNorth (350°)4.6 mphClear
7:55 PM37.4 °F10.4 °F33 %30.34 in10.0 miNNW (340°)10.4 mphClear
8:15 PM39.2 °F10.4 °F31 %30.33 in10.0 miNorth (360°)12.7 mphClear
8:35 PM41.0 °F10.4 °F29 %30.34 in10.0 miNorth (360°)11.5 mphClear
8:55 PM41.0 °F12.2 °F31 %30.34 in10.0 miNorth (360°)11.5 mphClear
9:15 PM41.0 °F14.0 °F33 %30.34 in10.0 miNorth (10°)11.5 mphClear
9:35 PM41.0 °F14.0 °F33 %30.34 in10.0 miNorth (10°)10.4 mphClear
9:55 PM37.4 °F12.2 °F36 %30.34 in10.0 miNorth (10°)11.5 mphClear
10:15 PM39.2 °F14.0 °F36 %30.34 in10.0 miNorth (360°)9.2 mphClear
10:35 PM37.4 °F14.0 °F38 %30.34 in10.0 miNorth (360°)10.4 mphClear
10:55 PM37.4 °F14.0 °F38 %30.35 in10.0 miNNW (330°)9.2 mphClear
11:15 PM35.6 °F14.0 °F41 %30.35 in10.0 miNorth (350°)8.1 mphClear
11:35 PM37.4 °F14.0 °F38 %30.35 in10.0 miNorth (360°)10.4 mphClear
11:55 PM39.2 °F15.8 °F39 %30.34 in10.0 miNorth (360°)10.4 mphClear
Hourly data recorded from KSVC, located miles away from San Juan, New Mexico







STORIES FROM OUR PARTNERS